This is the latest recevied weather packets stored in our database for station/object KC3JUG-3. If no packets are shown the sender has not sent any weather packets the latest 10 day(s).
| Time | Temp. | Humidity | Pressure | Rain* | Wind** | Luminosity | Snow |
|---|---|---|---|---|---|---|---|
| 1777586745 | 13.33° C | 74% | 1010.7 hPa | 0 mm | - | - | - |
| 1777583147 | 15.56° C | 61% | 1009.3 hPa | 0 mm | - | - | - |
| 1777582860 | 15.56° C | 63% | 1009.2 hPa | 0 mm | - | - | - |
| 1777582246 | 15.56° C | 63% | 1009 hPa | 0 mm | - | - | - |
| 1777579256 | 16.11° C | 64% | 1008.7 hPa | 0 mm | - | - | - |
| 1777578046 | 15.56° C | 63% | 1008.8 hPa | 0 mm | - | - | - |
| 1777576246 | 15° C | 66% | 1009 hPa | 0 mm | - | - | - |
| 1777573854 | 15° C | 66% | 1009.2 hPa | 0 mm | - | - | - |
| 1777573246 | 15° C | 69% | 1009.2 hPa | 0 mm | - | - | - |
| 1777572061 | 15° C | 70% | 1009.1 hPa | 0 mm | - | - | - |
| 1777570847 | 13.89° C | 74% | 1009.2 hPa | 0 mm | - | - | - |
| 1777569947 | 14.44° C | 74% | 1009.4 hPa | 0 mm | - | - | - |
| 1777566673 | 13.33° C | 77% | 1009.7 hPa | 0 mm | - | - | - |
| 1777564247 | 12.22° C | 86% | 1010.2 hPa | 0 mm | - | - | - |
| 1777563063 | 11.67° C | 84% | 1010.2 hPa | 0 mm | - | - | - |
| 1777562749 | 11.67° C | 84% | 1010.3 hPa | 0 mm | - | - | - |
| 1777561255 | 11.11° C | 88% | 1010.4 hPa | 0 mm | - | - | - |
| 1777560357 | 11.11° C | 90% | 1010.4 hPa | 0 mm | - | - | - |
| 1777560048 | 11.11° C | 92% | 1010.3 hPa | 0 mm | - | - | - |
| 1777559457 | 10.56° C | 94% | 1010.4 hPa | 0 mm | - | - | - |
| 1777557653 | 10° C | 98% | 1009.8 hPa | 0 mm | - | - | - |
| 1777556150 | 9.44° C | 98% | 1009.4 hPa | 0 mm | - | - | - |
| 1777555548 | 9.44° C | 98% | 1009.4 hPa | 0 mm | - | - | - |
| 1777553448 | 8.89° C | 98% | 1009.6 hPa | 0 mm | - | - | - |
| 1777551950 | 8.89° C | 98% | 1009.6 hPa | 0 mm | - | - | - |
* Rain latest hour (hover to see other rain measurements)
** Current wind speed in m/s (hover to see current wind gust speed)